Total_Precipitation_Accumulation
0.04 0.10 0.22 0.49 1.34 1.70 1.46 0.78 0.53 0.41 0.40 0.48 0.47 0.44 0.55 0.75 0.96 1.39 0.82 0.28 0.12 0.08 0.11 0.19 0.28 0.28 0.28 0.28 0.29 0.31 0.31 0.31 0.30 0.30 0.29 0.27 0.28 0.30 0.32 0.35 0.39 0.45 0.49 0.47 0.43 0.41 0.40 0.38 0.35
0.06 0.14 0.28 0.70 1.62 2.06 1.53 0.73 0.45 0.32 0.40 0.53 0.61 0.58 0.50 0.53 0.38 0.31 0.38 0.45 0.17 0.08 0.08 0.11 0.21 0.25 0.26 0.27 0.30 0.31 0.32 0.32 0.32 0.29 0.29 0.29 0.32 0.35 0.40 0.41 0.40 0.43 0.41 0.38 0.37 0.34 0.34 0.33 0.31
0.08 0.15 0.36 0.81 1.21 1.34 1.10 0.60 0.35 0.32 0.39 0.56 0.61 0.48 0.43 0.55 0.38 0.27 0.26 0.29 0.17 0.11 0.10 0.13 0.18 0.22 0.24 0.26 0.32 0.32 0.32 0.32 0.32 0.30 0.32 0.34 0.35 0.37 0.40 0.43 0.44 0.42 0.38 0.36 0.36 0.31 0.28 0.30 0.32
0.08 0.18 0.39 0.61 0.62 0.54 0.46 0.37 0.32 0.34 0.42 0.44 0.52 0.52 0.42 0.49 0.37 0.28 0.28 0.25 0.21 0.18 0.14 0.18 0.22 0.22 0.24 0.25 0.30 0.30 0.28 0.29 0.30 0.29 0.31 0.35 0.34 0.37 0.42 0.43 0.42 0.41 0.38 0.34 0.36 0.32 0.28 0.28 0.31
0.08 0.23 0.46 0.49 0.36 0.36 0.37 0.36 0.36 0.41 0.44 0.55 0.66 0.70 0.67 0.54 0.40 0.47 0.55 0.47 0.34 0.29 0.23 0.26 0.29 0.28 0.26 0.27 0.29 0.31 0.28 0.29 0.29 0.30 0.32 0.35 0.35 0.39 0.42 0.39 0.37 0.36 0.34 0.30 0.34 0.38 0.36 0.39 0.42
0.10 0.27 0.33 0.31 0.27 0.31 0.36 0.36 0.36 0.41 0.51 0.73 0.76 0.71 0.75 0.68 0.54 0.60 0.65 0.81 0.67 0.40 0.31 0.30 0.37 0.36 0.31 0.31 0.34 0.34 0.31 0.32 0.31 0.30 0.31 0.33 0.35 0.40 0.38 0.37 0.40 0.36 0.34 0.34 0.36 0.37 0.43 0.49 0.49
0.14 0.29 0.26 0.23 0.20 0.24 0.25 0.34 0.44 0.46 0.56 0.73 0.65 0.63 0.85 0.95 0.77 0.71 0.71 0.78 0.69 0.46 0.44 0.40 0.37 0.35 0.34 0.38 0.41 0.40 0.34 0.36 0.34 0.31 0.30 0.30 0.34 0.39 0.38 0.40 0.45 0.42 0.39 0.39 0.41 0.34 0.36 0.39 0.44
0.08 0.15 0.16 0.16 0.15 0.19 0.18 0.23 0.38 0.53 0.58 0.56 0.61 0.80 1.14 1.06 0.70 0.68 0.74 0.78 0.72 0.64 0.59 0.59 0.54 0.48 0.41 0.39 0.44 0.46 0.43 0.42 0.39 0.36 0.36 0.41 0.47 0.47 0.45 0.41 0.47 0.46 0.44 0.49 0.51 0.44 0.41 0.47 0.53
0.04 0.09 0.12 0.10 0.09 0.15 0.17 0.22 0.32 0.46 0.50 0.57 0.76 0.83 0.89 0.75 0.60 0.74 0.90 1.03 1.10 0.93 0.81 0.72 0.62 0.55 0.51 0.42 0.41 0.48 0.50 0.50 0.50 0.53 0.53 0.69 0.90 0.86 0.87 0.74 0.77 0.76 0.73 0.76 0.78 0.74 0.67 0.65 0.60
0.04 0.07 0.07 0.05 0.06 0.12 0.14 0.22 0.38 0.53 0.63 0.86 1.18 1.22 0.95 0.81 0.74 0.84 1.09 1.19 1.43 1.19 0.89 0.82 0.65 0.60 0.51 0.43 0.55 0.72 0.70 0.74 0.80 0.92 0.95 1.18 1.39 1.40 1.10 1.19 1.28 1.25 1.28 1.18 1.18 1.36 1.17 0.92 0.87
0.02 0.03 0.02 0.03 0.03 0.05 0.11 0.18 0.28 0.46 0.82 1.29 1.37 1.19 0.97 1.05 1.06 1.06 1.36 1.44 1.36 1.21 1.19 1.12 0.90 0.80 0.76 0.82 0.75 0.88 1.02 1.18 1.14 1.11 1.25 1.54 1.44 1.29 1.19 1.28 1.58 1.77 1.83 1.74 1.74 1.87 1.60 1.54 1.73
0.01 0.01 0.01 0.03 0.04 0.05 0.06 0.10 0.21 0.44 0.91 1.06 1.02 0.96 0.93 1.12 1.18 1.26 1.57 1.63 1.64 1.51 1.76 1.82 1.48 1.41 1.29 1.13 1.06 1.01 1.03 1.23 1.37 1.57 1.60 1.74 1.82 1.73 1.59 1.65 1.86 2.02 2.18 2.53 2.40 2.30 2.16 2.11 2.00
0.01 0.01 0.01 0.02 0.04 0.07 0.05 0.11 0.29 0.62 0.81 0.70 0.60 0.83 0.90 1.23 1.55 1.73 1.96 1.81 2.05 2.14 2.36 2.53 2.09 1.98 1.85 1.83 1.73 1.47 1.51 1.62 1.70 1.89 2.02 2.08 2.23 2.24 2.20 2.12 2.08 1.94 2.03 2.38 2.62 2.47 2.52 2.47 2.29
0.01 0.01 0.01 0.02 0.04 0.05 0.10 0.21 0.39 0.67 0.63 0.57 0.72 1.12 1.33 1.30 1.58 1.96 2.11 2.18 2.50 2.67 2.79 2.91 2.79 2.78 2.62 2.38 2.40 2.38 2.02 2.00 2.00 2.03 1.97 2.17 2.39 2.65 2.76 2.65 2.50 2.19 2.11 2.19 2.47 2.55 2.74 2.69 2.49
0.00 0.02 0.06 0.07 0.08 0.08 0.13 0.43 0.56 0.68 0.58 0.60 0.83 1.18 1.53 1.45 1.59 1.87 2.08 2.56 3.26 3.58 3.46 3.49 3.47 3.70 3.54 3.11 2.81 2.55 2.36 2.32 2.41 2.38 2.25 2.37 2.59 2.82 2.81 2.62 2.29 2.08 2.09 2.22 2.17 2.19 2.47 2.29 2.15
0.02 0.06 0.19 0.19 0.13 0.11 0.21 0.72 0.81 0.72 0.85 0.93 1.10 1.27 1.54 1.57 1.60 1.82 2.30 3.07 3.92 4.42 4.32 4.12 3.72 4.04 4.02 3.68 3.41 3.09 2.83 2.84 2.77 2.50 2.39 2.34 2.48 2.42 2.50 2.18 1.85 1.94 2.10 2.18 2.24 2.13 2.23 2.24 2.31
0.05 0.09 0.17 0.24 0.17 0.14 0.26 0.88 0.91 0.68 0.95 1.21 1.11 1.25 1.46 1.62 1.76 1.88 2.44 3.28 4.11 4.86 5.05 5.02 4.90 4.56 4.26 4.08 3.91 3.73 3.52 3.19 2.84 2.65 2.52 2.23 2.01 1.88 2.03 1.83 1.77 1.82 1.97 2.00 1.86 2.10 2.28 2.26 2.29
0.07 0.10 0.16 0.24 0.19 0.18 0.31 0.66 0.76 0.78 0.94 1.12 1.11 1.12 1.21 1.46 1.88 2.00 2.31 3.04 3.96 4.83 5.36 5.53 5.54 5.14 4.60 4.14 3.74 3.67 3.45 3.19 2.93 2.68 2.46 2.08 1.86 1.70 1.88 1.77 1.69 1.74 1.87 1.93 2.04 2.24 2.33 2.09 2.02
0.07 0.09 0.19 0.25 0.19 0.20 0.36 0.55 0.69 0.81 1.05 1.18 1.20 1.15 1.18 1.46 1.88 2.10 2.41 2.89 3.67 4.41 5.09 5.20 5.42 4.90 4.25 3.67 3.24 3.14 2.95 2.64 2.55 2.45 2.27 2.12 1.91 1.78 1.92 1.77 1.78 1.67 1.71 1.71 1.80 1.94 2.00 1.74 1.87
0.09 0.12 0.20 0.22 0.15 0.18 0.36 0.63 0.83 0.92 0.91 0.99 1.02 1.07 1.18 1.54 1.97 2.34 2.88 3.26 3.27 3.79 4.51 4.57 4.25 4.00 3.53 3.12 2.92 2.76 2.68 2.38 2.21 2.08 2.06 1.86 1.72 1.68 1.67 1.72 1.60 1.56 1.64 1.63 1.67 1.83 1.79 1.60 1.80
0.12 0.14 0.18 0.17 0.16 0.23 0.42 0.80 1.10 1.05 0.80 0.72 0.78 0.86 1.01 1.35 1.86 2.30 2.71 3.13 3.09 3.45 3.55 3.19 3.01 3.06 2.97 2.78 2.66 2.54 2.50 2.31 2.05 1.86 1.84 1.70 1.49 1.47 1.43 1.43 1.47 1.55 1.40 1.49 1.60 1.75 1.87 1.73 1.65
0.08 0.08 0.07 0.07 0.14 0.30 0.44 0.99 1.40 1.18 0.90 0.75 0.78 0.96 1.02 1.13 1.33 1.61 1.95 2.36 2.55 2.63 2.56 2.51 2.47 2.48 2.64 2.64 2.40 2.21 1.92 1.79 1.72 1.60 1.64 1.65 1.44 1.35 1.30 1.28 1.41 1.47 1.41 1.58 1.36 1.46 1.71 1.87 1.69
0.05 0.04 0.05 0.08 0.13 0.27 0.48 0.83 1.24 1.22 1.18 1.02 0.89 0.95 0.90 0.93 0.99 1.14 1.26 1.46 1.74 1.99 2.04 2.01 2.26 2.36 2.36 2.33 2.28 2.25 1.99 1.80 1.72 1.82 2.01 1.90 1.61 1.33 1.17 1.22 1.35 1.43 1.43 1.50 1.48 1.56 1.50 1.58 1.58
0.04 0.05 0.12 0.25 0.37 0.70 0.69 0.74 1.10 1.06 1.02 1.02 0.87 0.73 0.69 0.71 0.75 0.93 0.99 1.04 1.17 1.32 1.43 1.53 1.78 2.00 2.06 2.02 2.02 2.05 2.04 1.97 1.76 1.70 1.74 1.65 1.51 1.33 1.17 1.20 1.38 1.41 1.42 1.44 1.46 1.46 1.41 1.48 1.55
0.05 0.09 0.32 0.69 1.01 1.18 0.73 0.71 0.93 0.81 0.82 0.90 0.71 0.49 0.44 0.52 0.55 0.66 0.73 0.81 0.92 0.95 1.02 1.18 1.37 1.54 1.67 1.75 1.79 1.85 2.03 1.93 1.70 1.50 1.51 1.47 1.31 1.18 1.15 1.17 1.41 1.50 1.48 1.46 1.51 1.49 1.48 1.57 1.62
0.06 0.07 0.19 0.34 0.50 0.71 0.75 1.11 1.05 0.68 0.63 0.56 0.40 0.31 0.28 0.43 0.47 0.45 0.50 0.56 0.71 0.77 0.84 0.97 1.05 1.13 1.27 1.52 1.74 1.70 1.78 1.62 1.48 1.59 1.50 1.35 1.15 1.14 1.32 1.42 1.43 1.42 1.46 1.47 1.69 1.58 1.59 1.66 1.68
0.05 0.05 0.06 0.10 0.16 0.45 0.84 1.20 0.99 0.58 0.54 0.41 0.28 0.23 0.27 0.34 0.45 0.40 0.39 0.43 0.47 0.53 0.61 0.72 0.93 1.07 1.12 1.23 1.46 1.55 1.51 1.48 1.54 1.65 1.57 1.44 1.35 1.22 1.35 1.44 1.52 1.47 1.47 1.55 1.77 1.75 1.78 1.85 1.79
0.06 0.06 0.06 0.08 0.15 0.34 0.71 1.07 1.13 0.87 0.64 0.43 0.33 0.33 0.41 0.39 0.47 0.52 0.39 0.38 0.41 0.41 0.50 0.61 0.78 0.99 1.18 1.18 1.17 1.21 1.43 1.49 1.57 1.58 1.44 1.40 1.33 1.29 1.33 1.28 1.33 1.34 1.36 1.49 1.77 1.80 1.84 1.97 1.94
0.08 0.08 0.09 0.10 0.13 0.22 0.54 0.79 0.70 0.69 0.52 0.42 0.43 0.51 0.40 0.38 0.45 0.48 0.36 0.31 0.35 0.39 0.46 0.59 0.73 0.99 1.18 1.09 1.10 1.21 1.38 1.46 1.48 1.59 1.55 1.44 1.35 1.32 1.27 1.22 1.24 1.24 1.21 1.31 1.50 1.65 1.83 1.94 1.99
0.10 0.10 0.11 0.14 0.16 0.17 0.28 0.50 0.43 0.50 0.48 0.56 0.61 0.57 0.49 0.48 0.46 0.49 0.43 0.45 0.47 0.51 0.56 0.66 0.75 0.88 1.00 1.05 1.13 1.19 1.30 1.37 1.37 1.40 1.45 1.49 1.40 1.33 1.33 1.35 1.32 1.20 1.17 1.27 1.41 1.57 1.75 1.92 2.02